Location: Massangis
(47.6245°N, 3.9749°E)
Time: 01:20:40
(UTC+00:00)

Daily predictions for brighter satellites

Satellite Brightness Start Highest point End
(mag) Time Altitude Azimuth Time Altitude Azimuth Time Altitude Azimuth
STARLINK-1240 4.3 00:00:39 10° WNW 00:03:59 37° WSW 00:03:59 37° WSW
STARLINK-66 4.0 00:07:08 35° E 00:07:08 35° E 00:09:19 10° ENE
Cosmos 1570 Rocket 4.4 00:04:53 35° SSE 00:06:46 51° ESE 00:11:52 10° NNE
Cosmos 1763 Rocket 3.3 00:05:57 40° SSW 00:07:50 82° ESE 00:12:56 10° NNE
Cosmos 1709 Rocket 4.2 00:05:05 30° SSE 00:08:03 59° E 00:14:08 10° NNE
Cosmos 2227 Rocket 2.6 00:02:49 10° NW 00:08:17 48° WSW 00:10:10 35° SSW
STARLINK-1312 4.4 00:09:13 32° ESE 00:09:13 32° ESE 00:12:00 10° ENE
Landsat 4 4.0 00:04:56 10° N 00:08:36 58° WNW 00:09:24 45° WSW
STARLINK-1216 4.5 00:05:41 10° WNW 00:08:47 33° WSW 00:08:47 33° WSW
NOSS 7 (E) 4.3 00:09:45 66° WSW 00:10:07 80° NW 00:13:14 10° NE
Cosmos 2084 Rocket 3.6 00:07:56 10° NW 00:12:25 77° NE 00:14:58 25° SE
STARLINK-1265 4.5 00:14:09 25° E 00:14:09 25° E 00:15:53 10° ENE
Cosmos 1356 Rocket 4.2 00:09:05 10° NNW 00:13:03 39° W 00:13:55 34° WSW
STARLINK-1285 4.5 00:14:38 25° E 00:14:38 25° E 00:16:20 10° ENE
STARLINK-1296 4.4 00:16:22 26° E 00:16:22 26° E 00:18:09 10° ENE
STARLINK-1260 4.3 00:17:14 27° E 00:17:14 27° E 00:19:04 10° ENE
SL-16 R/B 3.9 00:11:19 10° ESE 00:16:45 34° ENE 00:22:14 10° N
Cosmos 1758 Rocket 3.9 00:15:28 39° SSE 00:16:50 57° E 00:21:12 10° NNE
STARLINK-1318 4.3 00:18:07 28° E 00:18:07 28° E 00:19:58 10° ENE
STARLINK-75 3.6 00:18:02 44° ESE 00:18:02 44° ESE 00:20:36 10° ENE
STARLINK-1275 4.2 00:18:59 29° E 00:18:59 29° E 00:20:54 10° ENE
STARLINK-1309 4.2 00:19:50 29° E 00:19:50 29° E 00:21:46 10° ENE
STARLINK-1282 4.2 00:20:42 30° E 00:20:42 30° E 00:22:40 10° ENE
STARLINK-1283 3.8 00:20:03 46° SSE 00:20:18 47° SE 00:24:16 10° ENE
STARLINK-1313 3.9 00:21:38 35° E 00:21:38 35° E 00:23:49 10° ENE
STARLINK-80 3.8 00:21:07 44° SE 00:21:07 44° SE 00:24:37 10° ENE
STARLINK-1279 3.8 00:22:32 36° E 00:22:32 36° E 00:24:45 10° ENE
STARLINK-1298 4.0 00:23:16 32° E 00:23:16 32° E 00:25:21 10° ENE
Nadezhda 1 Rocket 4.3 00:16:25 10° NNW 00:22:30 57° W 00:25:28 31° SSW
CZ-4 R/B 3.7 00:18:21 10° NNE 00:23:07 84° WNW 00:24:50 40° SSW
STARLINK-1293 4.0 00:24:09 33° E 00:24:09 33° E 00:26:18 10° ENE
STARLINK-1255 3.9 00:25:54 35° ESE 00:25:54 35° ESE 00:28:07 10° ENE
SL-16 R/B 4.1 00:22:44 12° SE 00:25:33 17° E 00:29:10 10° ENE
STARLINK-22 3.6 00:26:16 42° ESE 00:26:16 42° ESE 00:28:48 10° ENE
Cosmos 2208 Rocket 4.2 00:23:37 35° S 00:25:43 62° ESE 00:31:02 10° NNE
STARLINK-1297 3.8 00:26:32 43° SE 00:26:32 43° SE 00:29:43 10° ENE
STARLINK 1040 3.4 00:26:21 45° NNW 00:26:21 45° NNW 00:28:46 10° NE
STARLINK-1444 4.1 00:25:10 10° NW 00:26:52 29° N 00:26:52 29° N
STARLINK-1311 3.7 00:28:27 38° E 00:28:27 38° E 00:30:34 10° ENE
STARLINK-1452 4.2 00:25:48 10° NW 00:27:17 27° NNW 00:27:17 27° NNW
Cosmos 2285 Rocket 3.9 00:21:55 10° NNW 00:28:18 81° WSW 00:31:54 28° SSE
STARLINK-1415 4.5 00:26:53 10° NW 00:27:56 21° NNW 00:27:56 21° NNW
STARLINK-1450 4.4 00:26:55 10° NW 00:28:00 21° NNW 00:28:00 21° NNW
STARLINK-1401 4.5 00:26:56 10° NW 00:28:00 21° NNW 00:28:00 21° NNW
STARLINK-1417 4.4 00:27:00 10° NW 00:28:04 21° NNW 00:28:04 21° NNW
STARLINK-1413 4.5 00:27:01 10° NW 00:28:05 21° NNW 00:28:05 21° NNW
STARLINK-1402 4.5 00:27:01 10° NW 00:28:04 21° NNW 00:28:04 21° NNW
STARLINK-1422 4.5 00:27:07 10° NW 00:28:09 21° NNW 00:28:09 21° NNW
STARLINK-1453 4.4 00:27:08 10° NW 00:28:18 23° NNW 00:28:18 23° NNW
STARLINK-1398 4.3 00:27:09 10° NW 00:28:28 25° NNW 00:28:28 25° NNW
STARLINK-1420 4.4 00:27:11 10° NW 00:28:18 22° NNW 00:28:18 22° NNW
STARLINK-1440 4.4 00:27:13 10° NW 00:28:21 22° NNW 00:28:21 22° NNW
STARLINK-1460 4.4 00:27:14 10° NW 00:28:20 22° NNW 00:28:20 22° NNW
STARLINK-1436 (VISORSAT) 4.3 00:27:14 10° NW 00:28:34 25° NNW 00:28:34 25° NNW
STARLINK-1410 4.4 00:27:18 10° NW 00:28:22 21° NNW 00:28:22 21° NNW
STARLINK-1400 4.4 00:27:19 10° NW 00:28:24 21° NNW 00:28:24 21° NNW
STARLINK-1454 4.4 00:27:20 10° NW 00:28:26 22° NNW 00:28:26 22° NNW
STARLINK-1458 4.5 00:27:23 10° NW 00:28:24 20° NNW 00:28:24 20° NNW
STARLINK-1445 4.4 00:27:25 10° NW 00:28:35 22° NNW 00:28:35 22° NNW
STARLINK-1407 4.4 00:27:27 10° NW 00:28:35 22° NNW 00:28:35 22° NNW
STARLINK-1446 4.4 00:27:28 10° NW 00:28:37 22° NNW 00:28:37 22° NNW
STARLINK-1370 4.4 00:27:30 10° NW 00:28:37 22° NNW 00:28:37 22° NNW
STARLINK-1456 4.5 00:27:32 10° NW 00:28:32 20° NNW 00:28:32 20° NNW
STARLINK-1457 4.5 00:27:32 10° NW 00:28:33 21° NNW 00:28:33 21° NNW
STARLINK-1451 4.5 00:27:32 10° NW 00:28:33 20° NNW 00:28:33 20° NNW
STARLINK-1409 4.5 00:27:33 10° NW 00:28:33 21° NNW 00:28:33 21° NNW
STARLINK-1447 4.4 00:27:33 10° NW 00:28:41 22° NNW 00:28:41 22° NNW
STARLINK-1455 4.4 00:27:33 10° NW 00:28:41 22° NNW 00:28:41 22° NNW
STARLINK-1437 4.4 00:27:34 10° NW 00:28:38 21° NNW 00:28:38 21° NNW
STARLINK-1441 4.4 00:27:35 10° NW 00:28:44 22° NNW 00:28:44 22° NNW
STARLINK-1443 4.3 00:27:37 10° NW 00:28:52 24° NNW 00:28:52 24° NNW
STARLINK-1351 4.4 00:27:39 10° NW 00:28:48 22° NNW 00:28:48 22° NNW
STARLINK-1418 4.4 00:27:39 10° NW 00:28:48 22° NNW 00:28:48 22° NNW
STARLINK-1403 4.4 00:27:40 10° NW 00:28:51 23° NNW 00:28:51 23° NNW
STARLINK-1434 4.3 00:27:40 10° NW 00:28:54 23° NNW 00:28:54 23° NNW
STARLINK-1442 4.4 00:27:41 10° NW 00:28:50 22° NNW 00:28:50 22° NNW
STARLINK-1448 4.4 00:27:43 10° NW 00:28:51 22° NNW 00:28:51 22° NNW
STARLINK-1433 4.4 00:27:43 10° NW 00:28:51 22° NNW 00:28:51 22° NNW
STARLINK-1449 4.4 00:27:45 10° NW 00:28:56 23° NNW 00:28:56 23° NNW
STARLINK-1438 4.5 00:27:48 10° NW 00:28:49 20° NNW 00:28:49 20° NNW
STARLINK-1412 4.4 00:27:56 10° NW 00:29:05 22° NNW 00:29:05 22° NNW
STARLINK-1411 4.4 00:27:56 10° NW 00:29:01 22° NNW 00:29:01 22° NNW
CZ-2D R/B 3.7 00:27:45 10° NE 00:32:01 25° E 00:35:02 15° SE
USA 81 4.0 00:30:17 35° S 00:32:35 88° E 00:37:54 10° N
Cosmos-2242 3.0 00:28:34 10° N 00:32:51 78° E 00:34:23 39° SSE
Meteor 2-10 Rocket 3.5 00:28:13 10° NNW 00:33:19 66° W 00:35:16 36° SSW
USA 215 3.2 00:28:06 10° SE 00:34:38 67° SW 00:41:10 10° WNW
Cosmos 1953 Rocket 4.1 00:33:32 32° SSE 00:35:13 50° E 00:39:29 10° NNE
STARLINK-42 2.7 00:36:26 79° SE 00:36:26 79° SE 00:39:31 10° ENE
BREEZE-M R/B 3.3 00:29:51 10° W 00:36:27 73° NNW 00:39:49 10° ENE
Meteor 1-21 Rocket 4.3 00:34:27 32° SSW 00:37:10 73° WNW 00:42:59 10° N
STARLINK-1029 4.2 00:39:04 28° ESE 00:39:04 28° ESE 00:41:12 10° ENE
STARLINK-34 3.7 00:40:02 37° ESE 00:40:02 37° ESE 00:42:20 10° ENE
STARLINK-60 3.5 00:36:34 10° WNW 00:39:42 56° NNE 00:42:51 10° ESE
STARLINK-41 2.6 00:40:11 80° SE 00:40:11 80° SE 00:43:11 10° ENE
GP-B 4.1 00:36:28 10° NNE 00:40:41 40° E 00:42:59 23° SE
STARLINK-1272 3.2 00:42:02 57° S 00:42:18 60° SE 00:45:47 10° ENE
SeaSat 1 4.4 00:38:51 10° N 00:42:44 24° NW 00:46:37 10° W
STARLINK-62 3.5 00:43:45 41° ESE 00:43:45 41° ESE 00:46:12 10° ENE
Cosmos 540 Rocket 3.4 00:41:07 35° SSW 00:43:19 85° ESE 00:48:29 10° NNE
STARLINK-1307 3.3 00:46:48 52° SSW 00:47:26 64° SSE 00:51:08 10° ENE
Helios 1B rocket 3.0 00:44:53 10° N 00:48:53 48° WNW 00:50:24 32° SW
STARLINK-1290 3.2 00:50:11 50° SSW 00:50:57 67° SSE 00:54:39 10° ENE
Cosmos 1980 Rocket 2.1 00:51:50 31° SSW 00:54:41 88° ESE 01:00:22 10° NNE
Cosmos 2074 Rocket 4.5 00:51:22 21° SSE 00:55:26 55° E 01:01:33 10° NNE
Meteor 1-29 3.3 00:54:11 10° N 00:57:28 51° WNW 00:58:11 41° WSW
STARLINK-1317 3.3 00:56:33 39° SW 00:57:54 79° SSE 01:01:50 10° ENE
Cosmos 1455 3.1 00:56:04 10° NNW 00:59:28 33° W 01:00:05 31° WSW
Cosmos 1328 3.9 00:59:35 39° SW 01:00:53 64° WNW 01:04:51 10° N
STARLINK-55 3.3 01:00:33 32° W 01:01:48 62° NNW 01:05:00 10° ENE
STARLINK-1274 3.1 01:00:56 44° SW 01:01:56 82° SSE 01:05:29 10° ENE
STARLINK-43 4.2 01:00:05 13° W 01:03:14 47° NNW 01:06:49 10° ENE
STARLINK-1291 3.2 01:04:15 37° WSW 01:05:38 86° SSE 01:09:22 10° ENE
Cosmos 2369 4.3 01:02:04 21° WSW 01:05:39 49° NW 01:11:10 10° NNE
Meteor 1-11 4.2 01:03:54 27° S 01:07:01 81° E 01:12:38 10° NNE
Cosmos 1703 3.7 01:05:53 34° SW 01:07:10 49° WNW 01:11:00 10° N
Lacrosse 4 Rocket 3.1 01:04:32 10° WNW 01:07:20 18° WSW 01:07:20 18° WSW
STARLINK-1264 3.2 01:07:26 34° WSW 01:08:57 89° SSE 01:12:42 10° ENE
ADEOS II 4.0 01:06:00 10° NE 01:10:02 22° E 01:14:02 10° SE
Cosmos 1825 Rocket 4.0 01:08:39 30° SW 01:10:23 48° WNW 01:14:38 10° N
Cosmos 2263 Rocket 2.2 01:04:53 10° NNW 01:10:32 82° ENE 01:15:58 11° SSE
Timation 1 Rocket 4.3 01:06:06 10° NNW 01:12:02 67° WSW 01:16:19 19° SSE
STARLINK-1267 3.3 01:10:39 32° WSW 01:12:19 87° NNW 01:16:04 10° ENE
STARLINK-29 3.7 01:09:19 10° WNW 01:12:29 55° NNE 01:15:38 10° E
NOSS 2-1 (C) 4.0 01:12:04 28° SSE 01:12:51 32° ESE 01:16:02 10° ENE
STARLINK-28 3.7 01:11:33 22° W 01:13:22 51° NNW 01:16:32 10° ENE
Cosmos 2297 Rocket 4.1 01:11:19 10° WNW 01:13:40 13° W 01:14:46 12° WSW
SL-4 R/B 2.3 01:09:11 10° WNW 01:14:04 83° SSW 01:18:46 10° ESE
UNK 3.9 01:11:40 19° SSE 01:14:53 73° ENE 01:19:29 10° N
STARLINK-64 3.6 01:14:12 40° S 01:14:54 47° SE 01:18:23 10° ENE
USA 229 DEB 3.9 01:08:45 10° NW 01:16:03 88° NE 01:23:42 10° SE
USA 229 3.9 01:08:52 10° NW 01:16:08 87° NE 01:23:47 10° SE
NOSS 3-1 (C) 4.0 01:09:25 10° NW 01:16:55 86° SW 01:25:33 10° SE
NOSS 2-1 (D) 3.9 01:16:50 30° SSE 01:17:43 36° ESE 01:21:01 10° NE
Cosmos 372 Rocket 4.2 01:13:19 10° NNW 01:18:16 49° WSW 01:20:47 27° SSW
STARLINK-1207 3.4 01:17:09 27° WSW 01:19:05 80° NNW 01:22:50 10° ENE
NPP 4.1 01:13:59 10° NNE 01:19:17 54° E 01:22:54 20° S
Cosmos 2184 Rocket 4.0 01:16:27 23° S 01:20:31 80° E 01:26:43 10° N
CZ-4C R/B 3.5 01:16:52 10° WSW 01:21:48 37° NNW 01:27:39 10° NE
STARLINK-1266 3.4 01:20:25 25° WSW 01:22:29 76° NNW 01:26:15 10° ENE
BREEZE-M DEB (TANK) 1.7 01:23:13 55° SE 01:23:13 55° SE 01:25:28 10° ENE
STARLINK-33 3.7 01:21:41 20° W 01:23:35 48° NNW 01:26:38 10° ENE
Cosmos 1892 4.4 01:21:53 14° SE 01:24:29 27° E 01:27:44 10° NNE
NOSS 3-1 (A) 4.2 01:17:37 10° NW 01:25:03 78° NE 01:33:40 10° SE
STARLINK-1299 4.1 01:24:06 31° SSW 01:25:39 45° SE 01:29:43 10° ENE
STARLINK-1284 3.5 01:23:40 23° WSW 01:25:53 73° NNW 01:29:39 10° ENE
STARLINK-26 3.9 01:24:27 15° W 01:27:02 49° NNW 01:30:25 10° ENE
STARLINK-1302 4.3 01:25:46 29° S 01:27:09 39° SE 01:31:01 10° ENE
BREEZE-M DEB (TANK) 1.8 01:25:02 10° WNW 01:27:34 53° N 01:29:56 10° E
STARLINK-1258 3.5 01:27:00 21° WSW 01:29:20 70° NNW 01:33:05 10° ENE
Cosmos 1869 3.6 01:26:19 10° N 01:30:10 60° ENE 01:33:00 17° SSE
Cosmos 2150 Rocket 4.2 01:25:55 10° NNW 01:30:54 51° WSW 01:33:54 23° S
STARLINK-1273 4.2 01:30:32 29° S 01:32:05 42° SE 01:36:01 10° ENE
STARLINK-1292 3.6 01:30:17 20° WSW 01:32:46 67° NNW 01:36:31 10° ENE
Cosmos 2322 Rocket 2.8 01:29:42 19° S 01:33:26 48° ESE 01:38:48 10° NE
STARLINK-1345 4.5 01:32:11 10° NW 01:35:07 37° NNE 01:38:03 10° E
STARLINK-1355 4.5 01:32:32 10° NW 01:35:28 37° NNE 01:38:25 10° E
STARLINK-1321 4.5 01:32:52 10° NW 01:35:50 37° NNE 01:38:46 10° E
STARLINK-1358 4.5 01:33:15 10° NW 01:36:13 37° NNE 01:39:09 10° E
STARLINK-1332 4.5 01:33:33 10° NW 01:36:30 37° NNE 01:39:27 10° E
STARLINK-1348 4.5 01:33:53 10° NW 01:36:51 37° NNE 01:39:47 10° E
STARLINK-1288 4.1 01:35:19 28° SSW 01:37:02 46° SE 01:41:01 10° ENE
STARLINK-1330 4.5 01:34:13 10° NW 01:37:10 38° NNE 01:40:07 10° E
STARLINK-61 4.4 01:35:51 26° S 01:37:11 34° SE 01:40:47 10° ENE
STARLINK-1363 4.5 01:34:33 10° NW 01:37:30 38° NNE 01:40:27 10° E
STARLINK-1337 4.5 01:34:55 10° NW 01:37:52 38° NNE 01:40:50 10° E
STARLINK-1342 4.4 01:35:14 10° NW 01:38:12 38° NNE 01:41:09 10° E
STARLINK-1268 3.6 01:36:29 19° W 01:38:29 51° NNW 01:41:31 10° ENE
STARLINK-1364 4.4 01:35:35 10° NW 01:38:32 38° NNE 01:41:30 10° E
STARLINK-1376 4.4 01:35:55 10° NW 01:38:52 38° NNE 01:41:50 10° E
STARLINK-1360 4.4 01:36:15 10° NW 01:39:13 38° NNE 01:42:11 10° E
STARLINK-1361 4.4 01:36:36 10° NW 01:39:34 38° NNE 01:42:31 10° E
STARLINK-1289 3.7 01:36:51 17° W 01:39:38 62° NNW 01:43:23 10° ENE
STARLINK-1367 4.4 01:36:51 10° WNW 01:39:51 39° NNE 01:42:51 10° E
STARLINK-1366 4.4 01:37:15 10° NW 01:40:13 38° NNE 01:43:10 10° E
Cosmos 1697 Rocket 4.2 01:36:19 10° WSW 01:41:05 28° NW 01:45:58 10° NNE
Resurs 1-4 Rocket 2.1 01:35:55 10° NNE 01:41:16 87° WNW 01:44:54 21° SSW
STARLINK-1301 3.9 01:38:35 15° W 01:41:37 60° NNW 01:45:27 10° ENE
STARLINK-1308 3.9 01:40:08 27° SSW 01:42:03 50° SE 01:46:04 10° ENE
STARLINK-66 4.2 01:39:32 11° W 01:42:23 40° NNW 01:45:28 10° ENE
STARLINK-1303 3.8 01:40:12 15° W 01:43:08 60° NNW 01:46:52 10° ENE
Cosmos 1076 Rocket 4.3 01:39:51 15° SSE 01:43:11 48° E 01:47:24 10° NNE
Cosmos 1400 Rocket 3.8 01:39:29 10° NNW 01:43:12 32° W 01:44:45 24° SW
STARLINK-1316 3.7 01:41:31 16° W 01:43:45 48° NNW 01:46:48 10° ENE
Cosmos 1125 Rocket 3.5 01:39:26 10° NNW 01:44:35 63° WSW 01:48:54 15° S
STARLINK-1257 3.7 01:42:21 16° W 01:44:38 48° NNW 01:47:42 10° ENE
STARLINK-1256 3.7 01:43:17 15° W 01:45:37 47° NNW 01:48:39 10° ENE
STARLINK-58 3.3 01:44:00 20° W 01:46:02 59° NNW 01:49:11 10° ENE
STARLINK-1213 3.8 01:44:09 15° W 01:46:30 47° NNW 01:49:32 10° ENE
STARLINK-1312 3.9 01:43:32 14° W 01:46:38 58° NNW 01:50:22 10° ENE
STARLINK-1263 3.8 01:45:01 15° W 01:47:23 46° NNW 01:50:26 10° ENE
Meteor 2-17 Rocket 4.4 01:42:53 19° S 01:47:27 86° WNW 01:53:36 10° N
STARLINK-52 2.9 01:44:38 10° WNW 01:47:51 83° NNE 01:51:04 10° ESE
STARLINK-1259 3.8 01:45:54 14° W 01:48:20 46° NNW 01:51:22 10° ENE
STARLINK-1265 3.8 01:46:16 14° W 01:48:43 46° NNW 01:51:48 10° ENE
STARLINK-1285 3.8 01:46:44 14° W 01:49:13 45° NNW 01:52:15 10° ENE
STARLINK-1296 3.9 01:48:29 13° W 01:51:02 44° NNW 01:54:03 10° ENE
STARLINK-1260 3.9 01:49:21 13° W 01:51:56 44° NNW 01:54:57 10° ENE
STARLINK-1304 3.8 01:49:41 24° SW 01:51:57 58° SE 01:56:02 10° ENE
Cosmos 1408 4.0 01:49:31 11° SSE 01:52:40 33° E 01:56:01 10° NNE
STARLINK-1318 3.9 01:50:13 13° W 01:52:50 44° NNW 01:55:52 10° ENE
STARLINK-75 4.3 01:50:34 10° W 01:53:38 39° NNW 01:56:43 10° ENE
STARLINK-1275 3.9 01:51:05 12° W 01:53:45 43° NNW 01:56:46 10° ENE
STARLINK-1309 3.9 01:51:57 12° W 01:54:38 43° NNW 01:57:39 10° ENE
Cosmos 2154 Rocket 4.0 01:49:51 17° S 01:54:50 88° W 02:01:06 10° N
STARLINK-1282 4.0 01:52:49 12° W 01:55:32 42° NNW 01:58:32 10° ENE
STARLINK-48 3.5 01:53:48 18° WSW 01:56:37 79° NNW 02:00:31 10° ENE
STARLINK-1313 4.1 01:53:45 10° W 01:56:41 40° NNW 01:59:39 10° NE
GEOS 3 Rocket 3.6 01:52:09 10° SE 01:57:20 79° SW 02:02:41 10° NW
STARLINK-1279 4.1 01:54:39 10° W 01:57:36 39° NNW 02:00:36 10° NE
STARLINK-1278 3.7 01:55:21 21° SW 01:58:06 72° SSE 02:02:21 10° ENE
STARLINK-1298 4.0 01:55:23 11° W 01:58:13 41° NNW 02:01:13 10° NE
STARLINK-1293 4.0 01:56:16 11° W 01:59:09 41° NNW 02:02:09 10° NE
STARLINK-80 4.2 01:55:30 10° W 01:59:13 50° NNW 02:02:57 10° ENE
Cosmos 1825 3.9 01:56:05 10° SSE 01:59:17 28° E 02:02:32 10° NNE
STARLINK-1283 4.3 01:55:48 10° W 01:59:50 53° NNW 02:03:53 10° ENE
STARLINK-1280 3.7 01:57:08 21° SW 01:59:57 73° SSE 02:04:12 10° ENE
SL-16 R/B 2.8 01:55:29 16° S 02:00:11 49° W 02:06:10 10° NNW
Iridium 2 3.9 01:57:12 10° NNW 02:00:53 52° W 02:03:12 21° SSW
STARLINK-1255 4.1 01:58:01 10° W 02:00:58 40° NNW 02:03:57 10° NE
STARLINK-22 4.2 01:58:48 10° W 02:01:52 40° NNW 02:04:56 10° ENE
SL-08 R/B 4.0 01:57:32 10° SSE 02:02:02 53° ENE 02:06:31 10° N
Cosmos 1241 Rocket 4.5 01:57:57 18° SW 02:02:41 80° NW 02:08:59 10° NE
Meteor 2-2 Rocket 4.4 01:56:56 10° NNW 02:02:56 69° W 02:08:42 11° S
STARLINK-1311 4.2 02:00:16 10° W 02:03:01 35° NNW 02:05:48 10° NE
STARLINK-1297 4.1 02:00:23 10° W 02:03:54 48° NNW 02:07:25 10° ENE
Cosmos 1844 Rocket 3.6 01:59:30 10° NNW 02:05:00 52° ENE 02:10:26 10° SE
NOSS 2-1 (E) 3.0 02:04:58 22° SW 02:07:04 79° NW 02:10:49 10° NE
CRYOSAT 2 4.5 02:02:52 10° N 02:07:44 63° W 02:11:30 16° SSW
STARLINK-1286 3.6 02:05:37 19° SW 02:08:35 75° SSE 02:12:45 10° ENE
STARLINK-1339 4.5 02:04:57 10° WNW 02:08:50 51° NNE 02:12:43 10° E
SL-16 R/B 2.2 02:04:36 18° SSW 02:08:57 80° WNW 02:14:40 10° NNE
STARLINK-1281 3.6 02:08:48 18° SW 02:11:49 76° SSE 02:15:58 10° ENE
IRIDIUM 104 4.3 02:07:38 13° S 02:12:18 85° W 02:17:34 10° N
CZ-2D R/B 2.5 02:07:18 10° N 02:12:21 50° WNW 02:16:21 16° SW
Cosmos 2221 3.1 02:09:01 10° NNW 02:13:09 42° W 02:16:17 16° SSW
STARLINK-1377 4.4 02:09:29 10° WNW 02:13:25 53° NNE 02:17:21 10° E
STARLINK-1029 3.7 02:11:18 11° W 02:14:10 49° NNW 02:17:17 10° ENE
STARLINK-34 4.0 02:12:08 10° W 02:15:04 41° NNW 02:18:00 10° NE
STARLINK-60 3.9 02:12:52 10° W 02:15:38 27° SW 02:18:22 10° SSE
STARLINK-37 4.5 02:13:33 17° S 02:15:39 30° SE 02:18:52 10° ENE
STARLINK-1310 3.6 02:13:35 16° SW 02:16:48 82° SSE 02:20:58 10° ENE
FALCON 9 DEB 3.1 02:13:42 10° WNW 02:17:10 89° SW 02:20:38 10° ESE
STARLINK-1353 4.3 02:13:49 10° WNW 02:17:47 55° NNE 02:21:44 10° E
USA 215 4.4 02:15:22 14° SSW 02:18:27 19° WSW 02:22:59 10° W
Nadezhda 3 Rocket 4.2 02:12:21 10° NNW 02:18:31 56° W 02:24:39 10° SSW
Cosmos 1315 Rocket 3.6 02:15:19 10° NNW 02:18:52 33° W 02:21:24 16° SSW
STARLINK-62 4.1 02:16:00 10° W 02:18:54 39° NNW 02:21:48 10° NE
STARLINK-1272 4.4 02:16:19 10° W 02:19:42 41° NNW 02:23:05 10° ENE
STARLINK-63 4.4 02:18:10 16° SSW 02:20:25 32° SE 02:23:41 10° ENE
IRIDIUM 114 4.4 02:16:47 13° SSW 02:21:28 71° W 02:26:42 10° N
STARLINK-1319 3.6 02:18:21 15° WSW 02:21:46 87° SE 02:25:55 10° ENE
STARLINK-35 4.4 02:19:32 16° SSW 02:21:47 31° SE 02:24:58 10° ENE
CBERS-1 4.0 02:16:53 10° NNE 02:22:01 78° WNW 02:26:39 13° SSW
STARLINK-1375 4.2 02:18:12 10° WNW 02:22:11 57° NNE 02:26:08 10° E
STARLINK-51 4.3 02:21:14 16° SSW 02:23:35 32° SE 02:26:50 10° ENE
STARLINK-30 4.3 02:22:49 16° SSW 02:25:14 33° SE 02:28:33 10° ENE
STARLINK-1307 4.5 02:22:04 10° W 02:25:37 42° NNW 02:29:11 10° ENE
STARLINK-1350 4.2 02:22:32 10° WNW 02:26:31 60° NNE 02:30:30 10° ESE
STARLINK-72 4.3 02:24:13 15° SSW 02:26:37 34° SE 02:29:53 10° ENE
STARLINK-1277 3.6 02:23:08 13° WSW 02:26:45 89° NNW 02:30:55 10° ENE
Shenzhou-11 Module 2.6 02:26:47 21° SW 02:27:35 25° S 02:29:41 10° ESE
STARLINK-59 4.1 02:27:25 15° SSW 02:29:57 37° SE 02:33:17 10° ENE
Cosmos 2058 3.3 02:27:00 15° SSW 02:30:22 50° WNW 02:34:30 10° N
IRIDIUM 103 4.5 02:25:55 12° SSW 02:30:39 59° W 02:35:50 10° N
STARLINK-1352 4.1 02:26:43 10° WNW 02:30:42 63° NNE 02:34:41 10° ESE
Cosmos 2360 Rocket 2.4 02:25:44 12° SSW 02:31:01 72° ESE 02:36:39 10° NNE
STARLINK-56 4.1 02:29:04 15° SSW 02:31:43 37° SE 02:35:06 10° ENE
STARLINK-1276 3.6 02:27:56 12° WSW 02:31:45 84° NNW 02:35:55 10° ENE
STARLINK-73 4.1 02:30:38 15° SSW 02:33:19 38° SE 02:36:44 10° ENE
STARLINK-38 4.0 02:32:12 14° SSW 02:34:57 40° SE 02:38:23 10° ENE
STARLINK-1368 4.0 02:31:24 10° WNW 02:35:25 66° NNE 02:39:26 10° ESE
STARLINK-65 4.0 02:33:46 14° SSW 02:36:35 41° SE 02:40:01 10° ENE
STARLINK-1305 3.7 02:32:42 11° WSW 02:36:42 79° NNW 02:40:52 10° ENE
STARLINK-68 3.9 02:34:23 14° SSW 02:37:16 44° SE 02:40:46 10° ENE
STARLINK-1306 3.8 02:33:14 10° WSW 02:37:23 76° NNW 02:41:36 10° ENE
STARLINK-53 3.9 02:35:24 14° SSW 02:38:17 44° SE 02:41:46 10° ENE
Cosmos 1980 Rocket 4.0 02:35:17 10° W 02:39:28 21° NW 02:43:41 10° N
CZ-4B R/B 4.3 02:34:51 10° N 02:39:44 41° WNW 02:44:30 11° SW
STARLINK-1369 3.9 02:35:51 10° WNW 02:39:53 69° NNE 02:43:53 10° ESE
STARLINK-50 4.1 02:37:26 13° SSW 02:40:34 43° SE 02:44:12 10° ENE
STARLINK-1262 3.8 02:37:34 10° WSW 02:41:43 75° NNW 02:45:53 10° ENE
SL-24 DEB 4.3 02:37:17 10° N 02:41:55 81° E 02:46:31 10° S
STARLINK-1372 3.8 02:40:01 10° WNW 02:44:01 72° NNE 02:47:58 10° ESE
Cosmos 2333 Rocket 3.5 02:39:33 10° S 02:44:40 37° ESE 02:49:49 10° NE
STARLINK-71 4.0 02:41:45 12° SW 02:45:18 50° SE 02:49:13 10° ENE
Meteor 1-28 Rocket 3.1 02:42:43 10° S 02:46:29 81° WSW 02:50:14 10° NNW
STARLINK-1300 3.8 02:42:33 10° WSW 02:46:42 71° NNW 02:50:51 10° ENE
Landsat 5 4.3 02:43:24 10° SSE 02:47:49 58° ENE 02:52:11 10° N
STARLINK-29 3.8 02:45:41 10° W 02:48:28 28° SW 02:51:15 10° SSE
STARLINK-1378 3.8 02:44:44 10° WNW 02:48:46 76° NNE 02:52:48 10° ESE
Cosmos 2219 Rocket 3.4 02:43:43 10° S 02:48:46 37° ESE 02:53:51 10° NE
STARLINK-1026 4.4 02:45:20 11° SSW 02:49:04 41° SE 02:52:59 10° ENE
Cosmos 1727 Rocket 4.4 02:42:56 10° N 02:49:06 68° ENE 02:55:15 10° SSE
Cosmos 2322 4.3 02:44:29 10° S 02:50:03 57° ESE 02:55:40 10° NE
ADEOS II 2.3 02:44:56 10° N 02:50:06 58° WNW 02:55:14 10° SSW
STARLINK-1295 3.9 02:47:32 10° WSW 02:51:40 68° NNW 02:55:49 10° ENE
STARLINK-64 4.2 02:48:53 10° W 02:52:21 46° NNW 02:55:51 10° ENE
IRS-1D 4.2 02:47:50 10° N 02:52:49 44° WNW 02:57:42 10° SW
STARLINK-1379 3.7 02:49:14 10° WNW 02:53:17 80° NNE 02:57:19 10° ESE
SL-4 R/B 3.4 02:49:32 10° W 02:53:19 23° SW 02:56:59 10° S
IDEFIX/ARIANE 42P 3.2 02:48:28 10° NNE 02:53:39 56° E 02:58:48 10° S
Cosmos 2263 Rocket 3.7 02:50:18 10° WNW 02:53:42 17° W 02:57:05 10° SW
STARLINK-1013 4.3 02:50:08 10° SW 02:54:03 44° SE 02:58:00 10° ENE
Cosmos 1606 2.9 02:50:46 10° N 02:54:33 77° E 02:58:20 10° SSE
ERS-2 2.1 02:52:27 10° S 02:56:05 71° WSW 02:59:46 10° NNW
STARLINK-1287 4.0 02:52:32 10° WSW 02:56:39 64° NNW 03:00:47 10° ENE
STARLINK-25 3.4 02:53:37 10° SW 02:56:59 58° SSE 03:00:23 10° ENE
STARLINK-1329 3.6 02:53:04 10° WNW 02:57:07 84° NNE 03:01:10 10° ESE
STARLINK-1009 4.2 02:55:01 10° SW 02:59:00 48° SE 03:03:00 10° ENE
ATLAS 5 CENTAUR R/B 3.9 02:56:48 10° SE 02:59:05 14° ESE 03:01:29 10° ENE
BREEZE-M R/B 1.9 02:55:34 10° WNW 02:59:05 82° SSW 03:01:33 10° ESE
ARIANE 5 R/B 2.5 02:54:19 10° NNE 02:59:20 75° WNW 03:04:18 10° SSW
Cosmos 2341 Rocket 4.3 02:53:10 10° SSW 02:59:23 54° WNW 03:05:35 10° N
Cosmos 1892 4.1 02:57:03 10° SW 03:00:09 24° WNW 03:03:17 10° NNW
STARLINK-1362 3.6 02:57:36 10° WNW 03:01:40 88° NE 03:05:43 10° ESE
STARLINK-1320 2.8 02:59:51 10° WNW 03:02:58 64° SSW 03:06:02 10° SE
STARLINK-1322 2.8 03:00:13 10° WNW 03:03:18 64° SSW 03:06:24 10° SE
STARLINK-1324 2.8 03:00:32 10° WNW 03:03:38 64° SSW 03:06:43 10° SE
STARLINK-1294 2.8 03:00:49 10° WNW 03:03:56 63° SSW 03:07:03 10° SE
STARLINK-1015 4.1 02:59:56 10° SW 03:03:57 52° SE 03:07:59 10° ENE
CZ-2C R/B 3.3 03:00:13 10° NNE 03:03:57 57° ESE 03:07:43 10° S
STARLINK-1261 2.8 03:01:13 10° WNW 03:04:19 63° SSW 03:07:23 10° SE
CZ-2D R/B 3.6 03:00:07 10° NNE 03:04:24 88° W 03:08:45 10° SSW
STARLINK-1325 2.8 03:01:35 10° WNW 03:04:40 62° SSW 03:07:45 10° SE
STARLINK-1333 2.8 03:01:56 10° WNW 03:05:01 62° SSW 03:08:07 10° SE
STARLINK-1334 2.8 03:02:13 10° WNW 03:05:19 62° SSW 03:08:24 10° SE
STARLINK-1326 2.8 03:02:33 10° WNW 03:05:38 61° SSW 03:08:43 10° SE
STARLINK-1299 4.3 03:01:27 10° W 03:05:38 55° NNW 03:09:51 10° ENE
STARLINK-1323 2.8 03:02:56 10° WNW 03:06:02 61° SSW 03:09:06 10° SE
STARLINK-1373 3.5 03:02:05 10° WNW 03:06:08 87° SSW 03:10:09 10° ESE
STARLINK-1349 2.9 03:03:13 10° WNW 03:06:19 60° SSW 03:09:23 10° SE
STARLINK-1336 2.9 03:03:33 10° WNW 03:06:38 60° SSW 03:09:43 10° SE
STARLINK-1302 4.1 03:02:32 10° W 03:06:38 58° NNW 03:10:45 10° ENE
Cosmos 1408 Rocket 4.0 03:02:42 10° S 03:06:57 63° E 03:11:13 10° NNE
STARLINK-1331 2.9 03:03:56 10° WNW 03:07:01 60° SSW 03:10:06 10° SE
STARLINK-1344 2.9 03:04:14 10° WNW 03:07:19 59° SSW 03:10:24 10° SE
STARLINK-1343 2.9 03:04:37 10° WNW 03:07:42 59° SSW 03:10:47 10° SE
STARLINK-1346 2.9 03:04:53 10° WNW 03:08:01 59° SSW 03:11:06 10° SE
STARLINK-24 3.6 03:04:21 10° SW 03:08:21 72° SSE 03:12:22 10° ENE
STARLINK-1328 2.9 03:05:21 10° WNW 03:08:25 58° SSW 03:11:30 10° SE
STARLINK-1354 2.9 03:05:38 10° WNW 03:08:42 58° SSW 03:11:46 10° SE
Cosmos 1844 3.8 03:02:59 10° NNW 03:08:47 68° WSW 03:14:30 10° SSE
STARLINK-1016 4.0 03:04:51 10° SW 03:08:55 56° SE 03:12:59 10° ENE
STARLINK-1347 2.9 03:05:55 10° WNW 03:09:00 57° SSW 03:12:03 10° SE
STARLINK-1357 2.9 03:06:21 10° WNW 03:09:25 57° SSW 03:12:29 10° SE
STARLINK-1335 2.9 03:06:38 10° WNW 03:09:43 56° SSW 03:12:46 10° SE
STARLINK-1327 2.9 03:06:59 10° WNW 03:10:03 56° SSW 03:13:07 10° SE
STARLINK-1390 3.5 03:06:45 10° WNW 03:10:49 82° SSW 03:14:52 10° ESE
